Flag for Austria Weather past 2 weeks in Grieskirchen, Upper Austria, Austria

Now
43 °F

Passing clouds.


Feels Like: 37 °F
Forecast: 30 / 42 °F
Wind: 10 mph from West

Location: Linz / Hoersching-Flughafen

Current Time: Dec 23, 2014 at 6:39:23 AM

Latest Report: Dec 23, 2014 at 5:50 AM


Visibility: N/A

Pressure: 30.21 "Hg

Humidity: 66%

Dew point: 32 °F

Location of GrieskirchenLocation

Historic Weather in Grieskirchen — Graph

°F

Grieskirchen temperature yesterday

Maximum temperature yesterday: 46 °F (at 2:50 PM)
Minimum temperature yesterday: 41 °F (at 12:20 AM)
Average temperature yesterday: 43 °F

Past Weeks' High & Low Weather Summary

 TemperatureHumidityPressure
High57 °F (Dec 19, 1:50 PM)100% (Dec 8, 9:50 PM)30.48 "Hg (Dec 8, 9:50 PM)
Low30 °F (Dec 9, 8:50 PM)50% (Dec 12, 1:20 PM)29.83 "Hg (Dec 12, 2:20 PM)
Average40 °F83%30.09 "Hg
* Reported Dec 8 5:20 AM — Dec 23 5:20 AM, Grieskirchen, Weather by CustomWeather, © 2014

Note: Actual official high and low records may vary slightly from our data, if they occured in-between our weather recording intervals... More about our weather records

Advertising

Grieskirchen weather history for previous 24 hours

 ConditionsComfort  
Time TempWeatherWind HumidityBarometerVisibility
5:20 AM
Dec 23
43 °FPassing clouds.16 mph66%30.18 "HgN/A
4:50 AM45 °FPassing clouds.18 mph66%30.18 "HgN/A
4:20 AM43 °FClear.14 mph71%30.18 "Hg10 mi
3:50 AM43 °FClear.16 mph71%30.18 "Hg10 mi
3:20 AM45 °FClear.15 mph71%30.18 "Hg10 mi
2:50 AM45 °FClear.16 mph66%30.18 "Hg10 mi
2:20 AM46 °FCool.17 mph62%30.18 "HgN/A
1:50 AM46 °FClear.18 mph62%30.18 "Hg10 mi
1:20 AM46 °FClear.17 mph62%30.15 "Hg10 mi
12:50 AM46 °FClear.18 mph62%30.15 "Hg10 mi
12:20 AM46 °FClear.17 mph66%30.18 "Hg10 mi
11:50 PM
Dec 22
46 °FClear.12 mph66%30.18 "Hg10 mi
11:20 PM46 °FClear.12 mph66%30.18 "Hg10 mi
10:50 PM43 °FPassing clouds.3 mph71%30.21 "HgN/A
10:20 PM45 °FPassing clouds.2 mph66%30.21 "HgN/A
9:50 PM45 °FPassing clouds.3 mph61%30.21 "HgN/A
9:20 PM45 °FPassing clouds.10 mph66%30.21 "HgN/A
8:50 PM45 °FPassing clouds.12 mph66%30.18 "HgN/A
8:20 PM45 °FPassing clouds.12 mph66%30.18 "HgN/A
7:50 PM46 °FPartly cloudy.12 mph62%30.18 "HgN/A
7:20 PM45 °FPartly cloudy.7 mph66%30.18 "HgN/A
6:50 PM45 °FPassing clouds.3 mph66%30.18 "HgN/A
6:20 PM46 °FPartly cloudy.1 mph62%30.18 "HgN/A
5:50 PM46 °FPartly cloudy.3 mph62%30.18 "HgN/A
5:20 PM45 °FPassing clouds.6 mph66%30.18 "HgN/A
4:50 PM45 °FPartly cloudy.5 mph71%30.18 "HgN/A
4:20 PM45 °FPassing clouds.5 mph66%30.21 "HgN/A
3:50 PM45 °FBroken clouds.6 mph71%30.21 "HgN/A
3:20 PM46 °FBroken clouds.9 mph62%30.21 "HgN/A
2:50 PM46 °FPartly sunny.13 mph62%30.21 "HgN/A
2:20 PM45 °FScattered clouds.14 mph66%30.21 "HgN/A
1:50 PM45 °FBroken clouds.17 mph66%30.21 "HgN/A
1:20 PM45 °FBroken clouds.17 mph66%30.24 "HgN/A
12:50 PM45 °FPartly sunny.18 mph66%30.24 "HgN/A
12:20 PM45 °FPartly sunny.17 mph66%30.27 "HgN/A
11:50 AM43 °FBroken clouds.22 mph71%30.27 "HgN/A
11:20 AM43 °FScattered clouds.22 mph71%30.27 "HgN/A
10:50 AM43 °FPartly sunny.21 mph71%30.27 "HgN/A
10:20 AM41 °FPartly sunny.21 mph70%30.30 "HgN/A
9:50 AM41 °FPartly sunny.22 mph70%30.30 "HgN/A
9:20 AM41 °FPartly sunny.22 mph70%30.30 "HgN/A
8:50 AM41 °FPartly sunny.25 mph70%30.27 "HgN/A
8:20 AM41 °FPartly sunny.22 mph70%30.27 "HgN/A
7:50 AM41 °FPassing clouds.20 mph70%30.30 "HgN/A
7:20 AM41 °FPassing clouds.17 mph70%30.27 "HgN/A
6:50 AM41 °FPassing clouds.18 mph70%30.27 "HgN/A
6:20 AM41 °FPassing clouds.18 mph70%30.27 "HgN/A
Weather by CustomWeather, © 2014

See weather overviewHow to use our weather pages